Regional Weather Roundup
Issued by NWS

Home | Current Version | Previous Version | Graphics & Text | Print | Product List | Glossary On
Versions: 1 2 3 4 5 6 7 8 9 10 11 12 13 14 15 16 17 18 19 20 21 22 23 24 25 26 27 28 29 30 31 32 33 34 35 36 37 38 39 40 41 42 43 44 45 46 47 48 49 50
000
ASUS43 KFSD 291910
RWRSD

WEATHER ROUNDUP FOR SOUTH DAKOTA
NATIONAL WEATHER SERVICE SIOUX FALLS SD
200 PM CDT MON SEP 29 2014

NOTE: "FAIR" INDICATES FEW OR NO CLOUDS BELOW 12,000 FEET WITH NO
SIGNIFICANT WEATHER AND/OR OBSTRUCTIONS TO VISIBILITY.


SDZ001>005-009-010-012>017-292000-
NORTHWEST AND NORTH CENTRAL SOUTH DAKOTA

CITY           SKY/WX    TMP DP  RH WIND       PRES   REMARKS
BUFFALO          N/A     50  47  89 E16       29.94F
FAITH            N/A     50  49  96 E9        30.05F
MOBRIDGE       CLOUDY    59  49  69 E10       30.07F
$$

SDZ012>016-024>037-041>051-057-063-072>074-292000-
SOUTHWEST AND SOUTH CENTRAL SOUTH DAKOTA

CITY           SKY/WX    TMP DP  RH WIND       PRES   REMARKS
RAPID CTY ARPT LGT RAIN  50  49  96 SE9       30.02F
PIERRE         CLOUDY    60  52  74 E10       30.03F
CUSTER         CLOUDY    49  47  93 NE6       30.03F FOG
ELLSWORTH AFB  LGT RAIN  50  50 100 SE9       30.01
PINE RIDGE     CLOUDY    53  52  96 E10       30.00R
WINNER         CLOUDY    60  57  89 E13       30.03F
$$

SDZ004>011-016>023-039-040-292000-
NORTHEAST SOUTH DAKOTA

CITY           SKY/WX    TMP DP  RH WIND       PRES   REMARKS
ABERDEEN       CLOUDY    60  49  66 NE10      30.11F
WATERTOWN      CLOUDY    61  50  67 E10       30.10F
SISSETON         N/A     57  49  74 E9        30.13F
$$

SDZ017-020-022-023-036>040-048>070-292000-
SOUTHEAST SOUTH DAKOTA

CITY           SKY/WX    TMP DP  RH WIND       PRES   REMARKS
SIOUX FALLS    PTSUNNY   66  59  78 E12       30.07F
HURON          CLOUDY    66  54  65 E12       30.06F
CHAMBERLAIN    PTSUNNY   65  56  74 SE9       30.04F
MITCHELL       CLOUDY    68  58  70 E9        30.06F
YANKTON        SUNNY     72  63  73 NE7       30.03F
$$

ABBREVIATIONS USED IN REMARKS
   TC - TEMPERATURE IN CELSIUS
  WCI - WIND CHILL INDEX
   HX - HEAT INDEX
  VSB - VISIBILITY



USA.gov is the U.S. government's official web portal to all federal, state and local government web resources and services.